Weather in Al-Qurayyat

Saudi Arabia     31°19′51″N   37°20′42″E
temp.,
°C
wind,
m/s
gust,
m/s
humid.,
%
clouds,
%
prec.,
mm/h
press.,
hPa
HPBL,
m
19 september, sun
sun1900:00+25nw510270 0.0 1012160
03:00+23wnw47490 0.0 1012103
06:00+22wnw46550 0.0 101386
09:00+25nw67380 0.0 1014400
12:00+31nw44210 0.0 1013970
15:00+34nw56130 0.0 10101980
18:00+33nw68120 0.0 1010224
21:00+28nw59190 0.0 1013144
20 september, mon
mon2000:00+25nw59360 0.0 1013158
03:00+23wnw46380 0.0 1013102
06:00+22nw58400 0.0 1014111
09:00+26nnw55290 0.0 1014355
12:00+31nnw33200 0.0 1013855
15:00+34nw44150 0.0 10111401
18:00+33nnw45160 0.0 1010139
21:00+29nw48230 0.0 1012110
21 september, tue
tue2100:00+26nw48420 0.0 1013167
03:00+24wnw47440 0.0 1012114
06:00+23nw45440 0.0 101362
09:00+27nw22320 0.0 1014247
12:00+32nw11210 0.0 1012883
15:00+35nw33150 0.0 10091574
18:00+34nnw45140 0.0 1008162
21:00+30nw712230 0.0 1010320
22 september, wed
wed2200:00+26nw611360 0.0 1010288
03:00+24nw611351 0.0 1010220
06:00+23nw48360 0.0 1010137
09:00+26nw67300 0.0 1010435
12:00+32nw55160 0.0 1008992
15:00+35nw67120 0.0 10051929
18:00+32wnw810160 0.0 1006636
21:00+27nw711330 0.0 1007397
23 september, thu
thu2300:00+24wnw510410 0.0 1008354
03:00+22wnw58520 0.0 1008260
06:00+20wnw36710 0.0 1008151
09:00+23wnw67560 0.0 1009793
12:00+29wnw78280 0.0 10071636
15:00+30wnw1010260 0.0 10061941
18:00+28wnw911310 0.0 10071707
21:00+23wnw811480 0.0 1009768